APRIZESAT 4

Last updated on Fri Dec 29 2023 00:03:02 GMT+0000 (Coordinated Universal Time)

1 35684U 09041D 23361.68406855 .00001445 00000+0 19137-3 0 9994 2 35684 98.2624 38.5370 0045744 0.4167 359.7075 14.80864906777640
UTC large
Height (km)
Speed (km/s)
/
Latitude / Longitude
Inclination (degrees)
Orbital Period (minutes)
Azimuth
Elevation
Range (km)
Doppler Factor

Next 0 passes for location: London (51.5072 / 0.1276)

Sorry there are no passes over London.
APRIZESAT 4